Regional Weather Roundup
Issued by NWS

Home | Current Version | Previous Version | Graphics & Text | Print | Product List | Glossary On
Versions: 1 2 3 4 5 6 7 8 9 10 11 12 13 14 15 16 17 18 19 20 21 22 23 24 25 26 27 28 29 30 31 32 33 34 35 36 37 38 39 40 41 42 43 44 45 46 47 48 49 50
000
ASUS43 KMKX 172100
RWRWI

WISCONSIN REGIONAL WEATHER ROUNDUP
NATIONAL WEATHER SERVICE MILWAUKEE/SULLIVAN WI
300 PM CST SAT FEB 17 2018

NOTE: "FAIR" INDICATES FEW OR NO CLOUDS BELOW 12,000 FEET WITH NO
SIGNIFICANT WEATHER AND/OR OBSTRUCTIONS TO VISIBILITY.

WIZ001-002-006>008-014>016-023>028-172200-
NORTHWEST WISCONSIN

CITY           SKY/WX    TMP DP  RH WIND       PRES   REMARKS
SUPERIOR ARPT  PTSUNNY   31  13  48 W14       29.81S WCI  20
ASHLAND        FAIR      31  15  52 W17G25    29.79R WCI  19
HAYWARD        PTSUNNY   33  14  45 W13G24    29.79R WCI  24
SIREN          PTSUNNY   34  17  48 W13G18    29.83S WCI  25
CUMBERLAND     FAIR      32  19  59 W10       29.81S WCI  24
RICE LAKE      FAIR      32  21  64 W13       29.84S WCI  22
CHETEK         FAIR      32  22  67 SW9       29.83S WCI  24
LADYSMITH      FAIR      31  22  68 SW9       29.81F WCI  23
EAU CLAIRE     NOT AVBL
MENOMONIE      PTSUNNY   32  23  70 W10       29.88R WCI  23
NEW RICHMOND   FAIR      34  20  56 W12       29.86S WCI  25
OSCEOLA        FAIR      35  19  52 W10       29.88S WCI  28
$$

WIZ003>005-009-010-017-018-172200-
NORTH CENTRAL WISCONSIN

CITY           SKY/WX    TMP DP  RH WIND       PRES   REMARKS
MANITOWISH WTR FAIR      29  17  60 W10G17    29.72S WCI  20
ARBOR VITAE    FAIR      32  22  65 SW9       29.73F WCI  24
WOODRUFF       FAIR      32  22  65 SW9       29.73F WCI  24
RHINELANDER    FAIR      27  19  72 SW10      29.76F WCI  17
EAGLE RIVER    FAIR      28  17  62 SW13      29.72F WCI  17
LAND O LAKES   FAIR      31  16  54 SW7       29.73F WCI  25
PHILLIPS       FAIR      28  20  72 SW14      29.76F WCI  16
TOMAHAWK       CLOUDY    26  18  72 SW5       29.79S WCI  20
MEDFORD        CLOUDY    24  19  84 SW8       29.81S WCI  14
MERRILL        CLOUDY    25  20  80 SW7       29.82S WCI  17
$$

WIZ029-030-035-036-043>047-172200-
CENTRAL WISCONSIN

CITY           SKY/WX    TMP DP  RH WIND       PRES   REMARKS
WAUSAU         CLOUDY    25  19  78 W7        29.81S WCI  17
MOSINEE        LGT SNOW  25  21  86 SW9       29.84S WCI  15
MARSHFIELD     FLURRIES  25  20  81 W9        29.83R WCI  15
STEVENS POINT  MIX PCPN  23  21  92 SW7       29.86R WCI  14
WAUPACA        LGT SNOW  28  24  82 SW6       29.87S WCI  22
WAUTOMA        LGT SNOW  26  22  84 SW10      29.89R FOG     WCI  16
WISC RAPIDS    LGT SNOW  26  20  77 W7        29.87S WCI  18
CAMP DOUGLAS   FLURRIES  28  23  80 SW7       29.87F WCI  21
$$

WIZ011>013-019>022-031-037>040-048>050-172200-
NORTHEAST WISCONSIN

CITY           SKY/WX    TMP DP  RH WIND       PRES   REMARKS
ANTIGO         MIX PCPN  23  19  87 W10       29.80S WCI  12
SHAWANO        LGT SNOW  27  23  84 SW7       29.85F WCI  20
OCONTO         CLOUDY    25  20  83 SW7       29.85F WCI  17
STURGEON BAY   LGT SNOW  24  21  88 SW13G20   29.86S FOG     WCI  12
GREEN BAY      LGT SNOW  25  20  81 S10       29.87F VSB 1   WCI  15
MANITOWOC      LGT SNOW  26  23  88 W9        29.90R VSB 3/4 WCI  17
APPLETON       LGT SNOW  25  19  80 SW9       29.85F VSB 1   WCI  15
CLINTONVILLE   LGT SNOW  26  21  83 SW9       29.86S WCI  16
OSHKOSH        CLOUDY    26  22  84 SW6       29.89R WCI  19
$$

WIZ032>034-041-042-053>061-172200-
SOUTHWEST WISCONSIN

CITY           SKY/WX    TMP DP  RH WIND       PRES   REMARKS
LA CROSSE      CLOUDY    31  23  72 W7        29.91R WCI  24
SPARTA         FLURRIES  28  23  81 W8        29.90S WCI  20
VIROQUA        CLOUDY    27  24  88 W9        29.87S WCI  18
BOSCOBEL       CLOUDY    30  24  78 SW8       29.94R WCI  22
PRAIRIE DU CHI CLOUDY    30  23  75 W7        29.93S WCI  23
PLATTEVILLE    CLOUDY    29  28  99 SW9       29.91R VSB 1   WCI  20
$$

WIZ056-057-062-063-064-067-068-172200-
SOUTH CENTRAL WISCONSIN

CITY           SKY/WX    TMP DP  RH WIND       PRES   REMARKS
REEDSBURG      LGT SNOW  26  24  91 SW5       29.90R WCI  21
BARABOO/DELLS  LGT SNOW  26  23  87 SW5       29.89R WCI  21
LONE ROCK      SNOW      27  27 100 SW3       29.93R VSB 1/4
MINERAL POINT  LGT SNOW  30  30 100 SW6       29.90R VSB 3/4 WCI  24
MADISON        LGT SNOW  28  24  85 VRB3      29.91R VSB 3/4
MIDDLETON      CLOUDY    29  25  84 SW5       29.90R WCI  24
WATERTOWN      MIX PCPN  26  26 100 CALM      29.90F
MONROE         LGT SNOW  28  27  93 SW6       29.90R VSB 1   WCI  22
JANESVILLE     LGT SNOW  32  27  80 SW8       29.91R WCI  25
$$

WIZ051-052-058>065-066-070>072-172200-
SOUTHEAST WISCONSIN

CITY           SKY/WX    TMP DP  RH WIND       PRES   REMARKS
MILWAUKEE      LGT SNOW  32  25  75 SW9       29.92R WCI  24
WAUKESHA       LGT SNOW  27  23  86 SW7       29.93R WCI  19
MILWAUKEE/TIMM LGT SNOW  28  25  86 W8        29.93R VSB 3/4 WCI  20
RACINE         CLOUDY    33  23  66 S10       29.93F WCI  25
BURLINGTON     FAIR      32  24  72 SW7       29.91S WCI  25
KENOSHA        CLOUDY    35  23  61 SW8       29.91S WCI  29
FOND DU LAC    CLOUDY    27  20  75 W9        29.89R WCI  18
SHEBOYGAN      SNOW      27  24  89 W9        29.89S VSB 1/2 WCI  18
WEST BEND      LGT SNOW  28  27  93 SW8       29.89F WCI  20
JUNEAU         FLURRIES  26  22  86 S8        29.89S WCI  17
$$

LSZ147-162-172200-
LAKE SUPERIOR

STATION/POSITION TIME  TEMP    WIND        PRES    WAVE
                       AIR SEA DIR/SP/G            HT/PER
                 (UTC) (F)     (DEG/KT/KT) (MB)    (FT/S)
DEVILS ISLAND    2000   27     260/ 21/ 27 1008.8R
SAXON HARBOR     2030   33     280/ 11/ 17 1007.8S
$$

LMZ867-665-643>646-172200-
LAKE MICHIGAN

STATION/POSITION TIME  TEMP    WIND        PRES    WAVE
                       AIR SEA DIR/SP/G            HT/PER
                 (UTC) (F)     (DEG/KT/KT) (MB)    (FT/S)
NORTHPORT PIER   2040   24                 1010.2F
KEWAUNEE LAKESHO 2030   25     240/  5/  9 1011.2F
SHEBOYGAN LAKESH 2000   31     220/ 12/ 15 1013.2F
PORT WASHINGTON  2030   30     230/  6/ 11 1013.2F
MILWAUKEE LAKESH 2040   31     240/ 11/ 14   N/A
KENOSHA   LAKESH 2000   33     170/  3/  8 1013.2
$$

TC  - TEMPERATURE IN CELSIUS
VSB - VISIBILITY IN STATUTE MILES
WCI - WIND CHILL INDEX
HX  - HEAT INDEX




USA.gov is the U.S. government's official web portal to all federal, state and local government web resources and services.